Regional Weather Roundup
Issued by NWS Newport/Morehead, NC

Current Version | Previous Version | Text Only | Print | Product List | Glossary On
Versions: 1 2 3 4 5 6 7 8 9 10 11 12 13 14 15 16 17 18 19 20 21 22 23 24 25 26 27 28 29 30 31 32 33 34 35 36 37 38 39 40 41 42 43 44 45 46 47 48 49 50
000 ASUS42 KMHX 281624 RWRMHX WEATHER ROUNDUP FOR EASTERN NORTH CAROLINA NATIONAL WEATHER SERVICE NEWPORT/MOREHEAD CITY NC 1100 AM EST SAT FEB 28 2015 NOTE: "FAIR" INDICATES FEW OR NO CLOUDS BELOW 12,000 FEET WITH NO SIGNIFICANT WEATHER AND/OR OBSTRUCTIONS TO VISIBILITY NCZ015>017-031-032-045>047-102-103-281700- NORTH COAST CITY SKY/WX TMP DP RH WIND PRES REMARKS EDENTON MOSUNNY 33 17 51 N12 30.80F ELIZABETH CITY SUNNY 33 16 49 N7 30.81S KITTY HAWK SUNNY 34 22 61 N15G22 30.78R MANTEO SUNNY 36 21 55 N20G26 30.79R $$ NCZ045>047-081-094-103-104-281700- CENTRAL COAST CITY SKY/WX TMP DP RH WIND PRES REMARKS FRISCO CLOUDY 38 29 70 N15G30 30.73R SWANQUARTER N/A 37 N/A N/A NE17G23 30.71S $$ NCZ095-097-098-100-101-281700- SOUTHERN COAST CITY SKY/WX TMP DP RH WIND PRES REMARKS BEAUFORT MOSUNNY 39 28 64 NE18G29 30.72S CEDAR ISLAND N/A 37 N/A N/A N16 30.77S JACKSONVILLE SUNNY 40 23 50 N15 30.72F PINEY ISLAND N/A N/A N/A N/A MISG 30.74R WILMINGTON SUNNY 41 26 55 NE18 30.69F $$ NCZ011>013-027>030-043-044-078>080-089-090>093-098-281700- COASTAL PLAIN CITY SKY/WX TMP DP RH WIND PRES REMARKS AHOSKIE MOSUNNY 29 9 42 NE7 30.83R CLINTON SUNNY 37 21 54 NE13G18 30.75S ELIZABETHTOWN SUNNY 40 22 48 NE5 30.71S GOLDSBORO NOT AVBL GREENVILLE MOSUNNY 32 19 59 NE10G17 30.78S HAVELOCK SUNNY 40 22 48 NE16 30.75S KENANSVILLE SUNNY 37 20 50 N13G18 30.75S KINSTON FAIR 36 21 55 N12G18 30.77F NEW BERN SUNNY 39 21 48 N13 30.76S RICHLANDS SUNNY 39 21 48 NE14 30.73F ROCKY MOUNT PTSUNNY 32 11 41 N12 30.81R WASHINGTON MOSUNNY 34 17 50 NE12 30.78S WHITEVILLE SUNNY 38 22 53 N8 30.69S $$ AMZ130-135-150-152-154-156-158-170-250-252-270-ANZ085-086-088-633-658-670-281700- MARINE OBSERVATIONS STATION/POSITION TIME TEMP WIND PRES WAVE SWELL AIR SEA DIR/SP/G HT/PER HT/PER (UTC) (F) (DEG/KT/KT) (MB) (FT/S) (FT/S) CHESAPEAKE LIGHT 1600 27 10/ 18/ 19 1043.7 64 E VA BEACH 1550 36 49 360/ 19/ 21 1041.3 6/ 6 3/10 DUCK 1500 30 34 10/ 16/ 20 1041.7 2 E DUCK 1511 34 N/A 6/ 6 2/11 10 NE DUCK 1522 37 N/A 7/ 6 2/11 OREGON INLET 1500 34 37 360/ 19/ 24 1041.3 HATTERAS CG 1500 35 39 20/ 26/ 30 1040.1 CAPE LOOKOUT 1600 38 20/ 17/ 21 1039.8 BEAUFORT LAB 1600 37 40 30/ 16/ 20 1039.2 27 SE WRIGHTSVLE NOT AVBL 5 SE WRIGHTSVLE NOT AVBL 225 S CAPE HAT 1550 66 69 60/ 19/ 23 1032.9 10/ 8 3/10 41 SE CHARLESTON 1550 52 65 40/ 29/ 35 1033.9 8/ 7 3/14 $$

USA.gov is the U.S. government's official web portal to all federal, state and local government web resources and services.